[[{"header":{"parameterUnit":"m.s-1","parameterCategory":1,"la1":30.2991,"la2":30.254,"lo1":-89.0895,"lo2":-89.0444,"dy":0.0017,"dx":0.0017,"nx":28,"ny":28,"refTime":"2024-02-09T09:00:00:Z","depth":0,"parameterNumber":2,"parameterNumberName":"U-component_of_WINDS"},"data":[0,0,0,0,0,0,0,0,0,0,0,0,0,0,0,0,0,0,0,0,0,0,0,0,0,0,0,0,0,0,0,0,0,0,0,0,0,0,0,0,0,0,0,0,0,0,0,0,0,0,0,0,0,0,0,0,0,0,-2.4112,-2.4112,0,-2.4157,-2.4157,-2.4158,-2.4154,-2.4153,-2.4153,-2.4152,-2.4198,-2.42,-2.4202,0,0,0,0,0,0,0,0,0,0,0,0,0,-2.4025,-2.4026,-2.4112,-2.4112,-2.4113,-2.4157,-2.4157,-2.4158,-2.4154,-2.4153,-2.4152,-2.4152,-2.4198,-2.42,-2.4202,0,0,0,0,0,0,0,0,0,0,0,0,0,-2.4065,-2.4027,-2.4112,-2.4116,-2.4117,-2.4156,-2.4157,-2.4158,-2.4154,-2.4153,-2.4152,-2.4151,-2.4197,-2.42,-2.4202,-2.424,0,0,-2.4211,-2.4212,0,0,0,0,0,0,0,0,-2.4063,-2.4069,-2.4115,-2.4116,-2.4117,-2.4149,-2.4144,-2.4186,-2.4155,-2.414,-2.4152,-2.4151,-2.4183,-2.4187,-2.4197,-2.4242,-2.4244,-2.4211,-2.4213,-2.4214,-2.4215,0,0,0,0,0,0,0,-2.406,-2.4067,-2.413,-2.4116,-2.4117,-2.4117,-2.4121,-2.4152,-2.4167,-2.4141,-2.4141,-2.4147,-2.4183,-2.4195,-2.4198,-2.4245,-2.4211,-2.4214,-2.4215,-2.4217,-2.4325,-2.4327,0,0,0,0,0,0,-2.4056,-2.4064,-2.4128,-2.4131,-2.4087,-2.4119,-2.4124,-2.414,-2.4166,-2.4169,-2.4147,-2.4146,-2.419,-2.4195,-2.42,-2.4246,-2.4214,-2.4217,-2.4218,-2.4324,-2.4326,-2.4327,0,0,0,0,0,0,-2.4054,-2.4062,-2.4126,-2.4098,-2.4106,-2.4122,-2.4139,-2.4141,-2.4152,-2.4171,-2.4174,-2.4156,-2.419,-2.4196,-2.4231,-2.4248,-2.4218,-2.4221,-2.4323,-2.4325,-2.4326,-2.4339,0,0,0,0,0,0,-2.4052,-2.4061,-2.4075,-2.4098,-2.4107,-2.4155,-2.414,-2.4143,-2.4157,-2.4156,-2.418,-2.4183,-2.4189,-2.4226,-2.4233,-2.4251,-2.4223,-2.4321,-2.4324,-2.4326,-2.4337,-2.4341,-2.4345,0,0,0,0,0,-2.4049,-2.4076,-2.4076,-2.4083,-2.4125,-2.4156,-2.4162,-2.4169,-2.4159,-2.4173,-2.4185,-2.4182,-2.4246,-2.423,-2.4238,-2.4257,-2.432,-2.4323,-2.4326,-2.4336,-2.434,-2.4345,0,0,0,0,0,0,-2.4054,-2.4079,-2.4079,-2.4115,-2.4134,-2.4156,-2.4174,-2.4173,-2.4195,-2.4193,-2.4201,-2.4207,-2.4242,-2.4253,-2.4235,-2.4296,-2.4282,-2.4286,-2.4287,-2.4291,-2.4295,-2.4291,-2.4225,0,0,0,0,0,-2.406,-2.4083,-2.4104,-2.4134,-2.4143,-2.4157,-2.4171,-2.4175,-2.4195,-2.4203,-2.4217,-2.4237,-2.4262,-2.4277,-2.4301,-2.434,-2.4345,-2.4357,-2.4361,-2.4364,-2.4367,-2.439,-2.4395,-2.4336,-2.4336,-2.4336,0,0,-2.4071,-2.4088,-2.4102,-2.4135,-2.415,-2.4175,-2.4164,-2.419,-2.4208,-2.4207,-2.424,-2.4252,-2.4275,-2.4312,-2.4329,-2.4323,-2.4385,-2.4367,-2.4369,-2.4371,-2.4393,-2.4398,-2.4403,-2.4338,-2.4338,-2.4337,0,0,-2.4104,-2.4119,-2.4146,-2.4162,-2.4185,-2.4195,-2.4201,-2.4224,-2.4232,-2.4266,-2.4266,-2.4289,-2.4331,-2.4347,-2.4361,-2.4404,-2.4402,-2.4412,-2.443,-2.4452,-2.4457,-2.4461,-2.4476,-2.4482,-2.4415,-2.4415,-2.4415,0,-2.4115,-2.4151,-2.416,-2.4186,-2.4201,-2.4203,-2.4231,-2.4246,-2.4276,-2.4286,-2.4279,-2.4333,-2.4348,-2.439,-2.44,-2.4412,-2.442,-2.4408,-2.4455,-2.446,-2.4464,-2.4478,-2.4484,-2.4416,-2.4416,-2.4416,-2.4416,0,-2.4164,-2.4189,-2.4208,-2.4238,-2.4255,-2.4282,-2.4296,-2.4313,-2.4317,-2.4327,-2.4363,-2.4382,-2.441,-2.4421,-2.4424,-2.4464,-2.4459,-2.4454,-2.4439,-2.447,-2.4484,-2.449,-2.4418,-2.4417,-2.4417,-2.4417,0,0,-2.4198,-2.4234,-2.4241,-2.4255,-2.4282,-2.4302,-2.4331,-2.4358,-2.4373,-2.4395,-2.4419,-2.4456,-2.4452,-2.4468,-2.4474,-2.4493,-2.4526,-2.4486,-2.4486,-2.4492,-2.4572,-2.4575,-2.4581,-2.4526,-2.4528,-2.4528,-2.457,0,-2.4233,-2.4282,-2.4292,-2.4335,-2.4359,-2.4363,-2.4388,-2.4408,-2.4419,-2.4442,-2.4456,-2.4482,-2.4474,-2.4484,-2.4504,-2.4518,-2.4542,-2.4515,-2.4549,-2.455,-2.4541,-2.4588,-2.4591,-2.4629,-2.4575,-2.4576,-2.4577,0,-2.4279,-2.4303,-2.4348,-2.4374,-2.4385,-2.4407,-2.4434,-2.4456,-2.448,-2.4487,-2.4507,-2.4511,-2.4542,-2.4528,-2.4571,-2.4552,-2.4567,-2.4577,-2.4579,-2.4581,-2.4564,-2.4591,-2.4641,-2.4646,-2.4586,-2.4585,-2.4584,0,-2.4299,-2.4343,-2.4376,-2.4388,-2.4419,-2.4435,-2.4449,-2.4471,-2.4488,-2.4513,-2.4524,-2.4552,-2.4567,-2.4589,-2.4601,-2.459,-2.4644,-2.463,-2.4651,-2.465,-2.466,-2.4659,-2.4712,-2.4672,-2.4672,-2.4672,-2.4672,0,-2.4336,-2.4364,-2.4385,-2.4405,-2.4437,-2.4449,-2.4481,-2.4495,-2.4516,-2.4539,-2.4545,-2.4567,-2.4583,-2.4608,-2.4618,-2.4652,-2.4659,-2.4667,-2.4669,-2.4665,-2.4664,-2.4674,-2.4671,-2.4673,-2.4673,-2.4673,-2.4672,0,-2.4362,-2.4378,-2.4414,-2.4442,-2.445,-2.4472,-2.4496,-2.4516,-2.453,-2.456,-2.4568,-2.4588,-2.4618,-2.4633,-2.4671,-2.4678,-2.4716,-2.4717,-2.4708,-2.4708,-2.4728,-2.4725,-2.4788,-2.4797,-2.4751,-2.4752,-2.4752,0,-2.4384,-2.4406,-2.4436,-2.4453,-2.4467,-2.4493,-2.4511,-2.4525,-2.4544,-2.4574,-2.4591,-2.4622,-2.4646,-2.4694,-2.4713,-2.4742,-2.4743,-2.4764,-2.4748,-2.4744,-2.4743,-2.4741,-2.4743,-2.4766,-2.4766,-2.4766,-2.4767,0,-2.4421,-2.4428,-2.4453,-2.4482,-2.4503,-2.4526,-2.4549,-2.4562,-2.4581,-2.4601,-2.4632,-2.4652,-2.4691,-2.4721,-2.4752,-2.4767,-2.477,-2.4772,-2.4778,-2.4774,-2.4767,-2.4771,-2.4714,-2.477,-2.4769,-2.4769,-2.4769,-2.4769,-2.4445,-2.4465,-2.449,-2.4518,-2.4538,-2.4559,-2.458,-2.4597,-2.4623,-2.4655,-2.4663,-2.4696,-2.4722,-2.4764,-2.4781,-2.4807,-2.4803,-2.4812,-2.4814,-2.4816,-2.4816,-2.4765,-2.4813,-2.4813,-2.4813,-2.4813,-2.4813,0,-2.4481,-2.4499,-2.4525,-2.4557,-2.458,-2.4582,-2.4608,-2.4627,-2.4656,-2.468,-2.4705,-2.4742,-2.4772,-2.4795,-2.4826,-2.4843,-2.4845,-2.4851,-2.4849,-2.4852,-2.4819,-2.481,-2.4848,-2.4848,-2.4848,-2.4848,-2.4848,-2.4848,-2.4503,-2.4537,-2.4548,-2.4592,-2.4609,-2.4641,-2.4656,-2.4677,-2.4696,-2.4737,-2.4762,-2.4777,-2.4801,-2.4834,-2.4863,-2.4869,-2.488,-2.4885,-2.4891,-2.4858,-2.4855,-2.4851,-2.4843,-2.4888,-2.4888,-2.4923,-2.4923,-2.4923]},{"header":{"parameterUnit":"m.s-1","parameterCategory":1,"la1":30.2991,"la2":30.254,"lo1":-89.0895,"lo2":-89.0444,"dy":0.0017,"dx":0.0017,"nx":28,"ny":28,"refTime":"2024-02-09T09:00:00:Z","depth":0,"parameterNumber":3,"parameterNumberName":"V-component_of_WINDS"},"data":[0,0,0,0,0,0,0,0,0,0,0,0,0,0,0,0,0,0,0,0,0,0,0,0,0,0,0,0,0,0,0,0,0,0,0,0,0,0,0,0,0,0,0,0,0,0,0,0,0,0,0,0,0,0,0,0,0,0,2.7902,2.7903,0,2.7984,2.7985,2.7985,2.7982,2.7981,2.7979,2.7978,2.8056,2.8059,2.8062,0,0,0,0,0,0,0,0,0,0,0,0,0,2.774,2.7743,2.7902,2.7903,2.7904,2.7983,2.7985,2.7986,2.7982,2.7981,2.7979,2.7978,2.8055,2.8059,2.8063,0,0,0,0,0,0,0,0,0,0,0,0,0,2.7815,2.7744,2.7902,2.7912,2.7914,2.7983,2.7985,2.7986,2.7982,2.798,2.7979,2.7977,2.8054,2.8058,2.8063,2.8126,0,0,2.8077,2.8079,0,0,0,0,0,0,0,0,2.7811,2.7821,2.791,2.7912,2.7914,2.7971,2.7956,2.8033,2.7983,2.7956,2.7978,2.7976,2.8029,2.8035,2.8054,2.813,2.8133,2.8078,2.8081,2.8083,2.8084,0,0,0,0,0,0,0,2.7806,2.7817,2.7934,2.7911,2.7913,2.7911,2.792,2.7971,2.8001,2.7958,2.7958,2.7968,2.803,2.805,2.8056,2.8134,2.8078,2.8082,2.8085,2.8087,2.8269,2.827,0,0,0,0,0,0,2.7799,2.7813,2.7932,2.7937,2.7857,2.7916,2.7926,2.7954,2.8,2.8006,2.797,2.7968,2.8043,2.8051,2.8059,2.8138,2.8083,2.8087,2.809,2.8267,2.8269,2.8271,0,0,0,0,0,0,2.7795,2.781,2.7928,2.7875,2.789,2.792,2.7953,2.7957,2.7977,2.8009,2.8014,2.7985,2.8042,2.8052,2.8111,2.8141,2.8089,2.8093,2.8264,2.8267,2.827,2.8296,0,0,0,0,0,0,2.7791,2.7808,2.7833,2.7876,2.7893,2.798,2.7954,2.7959,2.7986,2.7984,2.8025,2.803,2.8041,2.8104,2.8115,2.8146,2.8097,2.8262,2.8266,2.8269,2.8292,2.8299,2.8305,0,0,0,0,0,2.7785,2.7835,2.7834,2.7849,2.7925,2.7982,2.7991,2.8005,2.7988,2.8013,2.8034,2.8028,2.8135,2.811,2.8123,2.8155,2.826,2.8264,2.8269,2.8289,2.8298,2.8305,0,0,0,0,0,0,2.7793,2.7841,2.7841,2.7906,2.794,2.7981,2.8013,2.8013,2.8051,2.8047,2.8061,2.807,2.8129,2.8148,2.8118,2.822,2.8195,2.8203,2.8206,2.8215,2.8221,2.8216,2.8101,0,0,0,0,0,2.7803,2.7846,2.7885,2.7939,2.7957,2.7982,2.8007,2.8015,2.805,2.8064,2.8088,2.8121,2.8163,2.8189,2.8229,2.8295,2.8304,2.8324,2.833,2.8335,2.8342,2.838,2.839,2.8286,2.8286,2.8286,0,0,2.7822,2.7854,2.788,2.7942,2.7969,2.8013,2.7994,2.804,2.8073,2.807,2.8128,2.8148,2.8185,2.8248,2.8277,2.8265,2.8373,2.8341,2.8345,2.8349,2.8386,2.8396,2.8405,2.8289,2.8289,2.8288,0,0,2.7882,2.7909,2.7959,2.7988,2.8031,2.8048,2.806,2.8101,2.8115,2.8174,2.8173,2.8211,2.8281,2.8309,2.8332,2.8405,2.8402,2.8417,2.8451,2.8489,2.8497,2.8504,2.8533,2.8542,2.8424,2.8424,2.8424,0,2.79,2.7969,2.7984,2.8033,2.8061,2.8062,2.8113,2.8139,2.8191,2.821,2.8196,2.8287,2.8312,2.8383,2.8401,2.8419,2.8434,2.8413,2.8495,2.8502,2.851,2.8536,2.8547,2.8425,2.8425,2.8425,2.8425,0,2.7991,2.8038,2.8073,2.8127,2.8158,2.8207,2.823,2.826,2.8265,2.8284,2.8344,2.8375,2.8422,2.8439,2.8443,2.8511,2.8503,2.8492,2.8467,2.8521,2.8547,2.8557,2.8428,2.8427,2.8427,2.8426,0,0,2.8056,2.8121,2.8133,2.816,2.8208,2.8244,2.8293,2.8342,2.8368,2.8404,2.8447,2.8507,2.8499,2.8525,2.8533,2.8565,2.8624,2.8551,2.8552,2.8565,2.8704,2.8713,2.8725,2.8622,2.8624,2.8626,2.8701,0,2.8122,2.8213,2.8229,2.8308,2.8353,2.8356,2.8399,2.8433,2.8452,2.8492,2.8511,2.8556,2.8539,2.8556,2.8588,2.861,2.8653,2.8605,2.8662,2.8664,2.8655,2.8738,2.8747,2.8817,2.8711,2.8713,2.8714,0,2.8211,2.8253,2.8337,2.8383,2.8402,2.8441,2.8489,2.8526,2.8565,2.8577,2.8608,2.8613,2.8664,2.8637,2.8708,2.8676,2.87,2.8714,2.8717,2.8724,2.8693,2.8749,2.8839,2.8851,2.8729,2.8728,2.8727,0,2.8253,2.8331,2.8392,2.8414,2.8467,2.8495,2.8518,2.8556,2.8585,2.8625,2.8645,2.8689,2.8714,2.8749,2.8766,2.8744,2.8837,2.881,2.8848,2.8848,2.8868,2.8867,2.8966,2.8881,2.8881,2.8881,2.8881,0,2.8326,2.8378,2.8412,2.845,2.8509,2.8527,2.8584,2.8606,2.864,2.8682,2.8686,2.8724,2.8744,2.8785,2.8798,2.8857,2.8867,2.8878,2.8881,2.8879,2.8878,2.8896,2.8892,2.8884,2.8883,2.8882,2.8882,0,2.8383,2.8408,2.8476,2.8523,2.8536,2.8577,2.8616,2.8653,2.8672,2.8725,2.8738,2.8768,2.8818,2.8838,2.8897,2.8907,2.8975,2.8973,2.8963,2.8964,2.9002,2.8999,2.9117,2.9134,2.9036,2.9037,2.9038,0,2.8429,2.847,2.8522,2.8552,2.8577,2.8624,2.8655,2.8674,2.8706,2.8755,2.8786,2.8836,2.8878,2.8956,2.8983,2.9029,2.9029,2.9068,2.9036,2.9034,2.9033,2.9031,2.9036,2.9074,2.9075,2.9076,2.9076,0,2.8508,2.852,2.8565,2.8616,2.8654,2.8693,2.8732,2.8756,2.8782,2.8817,2.8869,2.8902,2.8965,2.9015,2.9063,2.9085,2.9086,2.9086,2.9098,2.9097,2.909,2.9096,2.898,2.9083,2.9083,2.9082,2.9082,2.9082,2.8563,2.86,2.8644,2.8695,2.8727,2.8765,2.8803,2.8828,2.8873,2.8928,2.8936,2.8992,2.9031,2.9097,2.9122,2.9166,2.9156,2.9172,2.9176,2.9181,2.9184,2.9082,2.9174,2.9174,2.9174,2.9174,2.9173,0,2.8644,2.8673,2.872,2.8777,2.8817,2.8816,2.886,2.8894,2.8944,2.8982,2.9024,2.9085,2.9134,2.9165,2.9215,2.9244,2.9246,2.9257,2.9255,2.9261,2.9189,2.9175,2.9255,2.9255,2.9255,2.9255,2.9255,2.9255,2.8691,2.8756,2.8773,2.8853,2.8881,2.8939,2.8965,2.8999,2.903,2.9099,2.9141,2.9162,2.9198,2.925,2.9296,2.9303,2.9322,2.9334,2.9342,2.9274,2.9266,2.9258,2.9245,2.9338,2.9338,2.941,2.9411,2.9412]}]]